Theta_e
324 319 317 317 303 302 297 300 306 305 306 309 314 309 307 312 310 308 328 332 339 341 344 343 345 347 347 348 348 348 347 344 343 343 342 345 344 341 339 339 339 341 341 343 344 344 343 342 342
316 317 316 312 299 295 294 302 303 307 310 313 311 307 308 310 322 324 324 334 340 343 343 341 343 346 346 347 348 348 346 344 342 343 341 342 342 342 340 339 341 339 339 341 342 342 341 341 340
318 315 310 303 299 296 295 301 305 308 311 310 308 310 309 314 324 326 331 335 340 341 342 341 343 346 346 348 348 348 346 345 342 343 340 340 341 340 339 340 339 338 338 338 338 338 339 339 339
314 310 310 299 298 299 299 302 306 306 306 308 309 307 316 324 325 330 332 337 337 341 340 341 344 345 346 346 348 348 346 345 343 341 339 340 340 340 343 342 342 341 340 339 340 340 338 338 338
312 309 299 297 299 299 300 305 306 304 304 305 306 304 313 326 333 331 331 336 339 340 339 341 343 344 345 346 347 347 346 345 344 342 339 339 340 340 340 340 340 340 339 338 339 338 337 337 336
304 306 297 295 298 300 300 305 306 303 303 305 302 305 315 328 330 330 332 334 341 339 339 339 337 340 342 344 344 345 346 345 343 342 340 338 339 339 339 338 338 339 338 337 337 336 335 335 334
305 301 297 299 297 298 301 303 301 302 301 303 305 301 316 323 330 331 332 335 340 340 339 338 338 337 336 339 339 342 344 344 342 342 341 339 338 338 337 336 333 334 336 336 335 334 334 333 331
306 304 299 298 297 297 302 303 303 302 302 306 308 301 308 322 331 332 333 334 338 338 338 336 335 336 336 335 333 336 338 340 340 338 335 333 332 332 331 328 330 333 334 334 333 333 332 330 329
308 298 296 297 298 298 303 300 302 302 303 302 307 309 318 329 330 329 329 332 335 335 336 336 334 334 334 335 332 331 333 334 333 331 328 327 327 327 327 326 328 330 335 334 332 330 329 327 326
302 298 300 304 300 300 302 302 302 298 300 301 306 312 326 328 328 326 326 328 332 332 335 335 335 332 333 335 333 334 335 336 335 333 327 331 330 328 326 322 325 327 329 331 330 326 325 324 320
302 300 302 302 303 305 303 302 304 299 298 301 303 312 323 324 326 326 327 328 330 333 334 336 336 334 334 332 332 331 332 333 336 334 331 332 328 324 324 321 320 319 320 320 322 319 320 320 319
299 301 301 304 302 303 303 304 299 300 299 304 305 314 321 322 325 326 327 329 329 331 333 335 336 336 333 334 331 331 329 331 333 335 333 331 327 324 323 320 319 319 318 318 319 318 319 319 320
299 300 301 302 301 301 303 301 299 300 303 304 307 314 318 321 321 326 329 331 330 330 332 334 336 335 335 332 332 332 331 330 331 331 333 332 327 324 323 321 320 320 319 317 316 317 317 317 318
299 300 299 300 299 300 300 297 298 301 303 303 304 306 313 317 320 320 323 324 330 331 331 334 335 336 335 334 332 332 332 331 330 330 330 330 327 324 322 321 321 319 317 316 316 316 316 316 316
299 296 296 297 298 296 297 294 295 297 299 301 302 302 305 310 316 319 322 323 325 331 332 332 334 336 335 334 334 332 332 331 330 329 329 328 327 325 322 320 319 319 318 315 315 315 316 314 316
294 294 290 296 297 297 295 290 299 300 298 298 298 298 300 303 308 315 319 324 326 327 331 331 332 334 335 334 334 334 333 331 330 330 330 327 327 325 321 320 319 319 316 314 313 313 313 312 312
291 286 289 292 298 296 294 292 297 297 297 295 297 298 299 300 304 308 315 320 324 327 330 331 331 331 333 334 334 334 333 331 330 330 329 328 326 325 322 320 319 318 315 312 312 312 312 311 310
287 286 289 289 292 293 292 292 295 296 296 295 296 297 297 298 301 305 311 317 322 324 327 331 332 331 331 332 333 333 332 331 330 329 328 329 327 325 322 320 319 317 314 311 311 310 311 310 310
290 290 289 291 293 291 291 292 294 296 295 296 296 297 298 299 301 302 306 310 316 321 324 328 331 331 330 330 329 329 329 330 329 330 329 328 328 326 322 320 318 316 313 311 310 309 309 308 309
290 289 288 290 294 291 290 291 294 296 296 297 297 296 298 298 300 302 302 303 306 312 319 324 326 331 330 329 330 330 330 330 330 330 328 328 327 327 322 320 318 315 312 311 309 307 306 307 308
289 288 287 288 290 290 287 287 290 294 297 297 298 298 299 299 299 301 301 301 302 302 304 315 322 325 331 330 330 329 330 328 328 328 328 328 327 326 325 322 319 315 313 311 309 306 306 302 303
286 291 291 289 287 281 287 279 286 290 292 294 296 296 297 298 298 299 300 299 301 301 303 305 306 315 324 330 327 327 326 325 327 328 328 326 326 325 324 323 321 316 313 311 309 306 307 305 302
289 292 290 289 286 283 283 280 284 289 289 292 294 295 296 297 300 300 301 303 303 305 305 305 304 304 310 325 328 326 325 326 326 327 326 325 323 323 323 321 320 317 314 312 310 308 307 307 306
293 290 289 287 285 278 284 283 283 287 290 290 292 295 298 299 299 300 301 302 304 307 309 308 303 302 305 311 326 326 325 324 323 324 324 324 322 321 321 320 320 318 314 312 311 309 307 306 306
290 286 279 277 277 277 282 281 285 290 291 292 294 295 296 299 299 299 299 300 302 304 309 308 303 302 306 310 314 324 325 325 324 323 324 323 321 319 319 319 318 318 317 315 313 310 307 306 306
287 286 280 274 276 277 281 278 284 292 292 291 293 296 296 297 299 299 299 300 301 303 307 307 307 308 310 313 316 317 321 323 323 323 324 323 322 321 321 319 319 318 318 316 313 311 308 306 305
287 283 287 280 274 276 280 284 290 291 291 292 291 295 295 296 297 298 298 299 300 301 302 307 307 307 310 311 312 312 317 318 319 318 318 320 319 316 319 319 318 317 316 314 311 309 306 304 303
288 290 281 282 272 272 278 279 283 287 289 291 291 292 295 297 298 298 298 298 299 299 301 302 306 306 305 306 307 308 309 311 311 311 310 309 309 309 311 311 311 311 310 310 309 307 306 303 302
285 285 285 285 282 276 274 279 287 289 291 290 290 293 295 296 296 297 297 297 297 298 299 300 301 303 305 305 305 304 305 306 306 305 305 307 306 307 308 308 310 309 308 307 306 305 304 303 302
289 286 286 280 278 280 280 281 291 290 290 292 293 294 295 296 296 296 296 295 296 296 297 297 297 297 298 300 300 300 300 300 299 299 300 301 301 300 300 300 300 300 301 301 300 301 301 301 300
Wind_Speed
7 7 4 3 2 3 4 4 8 8 6 3 10 7 9 11 7 6 6 13 17 15 13 10 12 12 11 10 13 13 13 14 14 15 15 15 17 18 17 15 15 16 16 17 17 17 19 17 16
6 7 1 4 2 4 3 8 6 4 9 9 7 1 5 7 7 8 6 13 15 15 12 10 11 11 12 9 11 13 14 14 14 15 15 15 16 16 17 16 15 15 16 16 17 16 16 15 15
5 5 2 3 5 4 5 9 9 10 8 6 5 3 5 4 10 10 13 12 14 14 12 12 10 11 11 11 13 14 14 14 14 14 14 14 14 14 15 13 15 15 16 17 17 17 16 15 14
3 2 4 4 8 4 8 7 13 8 5 7 4 9 6 7 6 10 11 13 11 14 13 11 11 11 10 11 11 13 14 13 13 13 14 14 13 14 14 18 16 15 18 17 17 17 17 15 14
2 3 4 6 7 6 4 9 11 8 7 5 4 6 7 4 8 13 11 12 15 12 12 10 11 10 9 10 9 11 14 14 14 13 14 13 13 14 14 16 14 16 16 16 16 17 16 14 13
2 2 3 6 4 9 3 7 8 6 5 6 1 8 5 8 8 10 9 10 17 13 11 10 10 10 9 9 9 11 12 14 14 13 13 12 13 13 12 14 11 14 17 16 15 15 14 13 13
2 2 7 9 7 6 6 3 4 5 4 6 5 4 5 7 9 9 9 9 16 12 11 9 8 7 9 8 8 10 10 13 13 12 12 11 11 10 11 12 11 11 14 16 14 13 13 12 11
2 1 7 4 8 5 6 6 3 3 5 2 5 1 7 9 10 9 9 8 16 11 9 9 8 7 6 6 8 8 9 10 11 11 10 10 10 10 10 10 10 10 11 14 13 11 11 11 9
3 1 4 2 5 7 8 5 1 1 5 2 3 5 8 13 10 8 7 8 11 9 7 10 9 7 7 7 6 7 8 7 10 9 10 9 5 5 6 9 9 10 10 12 13 9 7 8 6
2 2 6 7 2 8 9 8 8 4 5 4 7 3 10 11 8 9 8 9 11 8 5 6 8 8 7 8 7 6 6 4 5 6 6 4 5 5 7 7 9 8 9 10 9 4 1 3 2
5 2 1 6 6 10 10 4 8 5 6 8 13 10 10 9 8 7 7 8 6 9 5 5 6 7 9 7 5 3 3 4 5 8 6 3 6 5 5 3 3 4 5 3 3 2 2 1 2
2 0 6 4 5 2 9 6 4 5 3 5 7 15 10 9 10 9 9 14 12 10 10 7 7 3 6 6 5 5 4 4 4 5 5 4 3 4 5 4 4 4 3 5 4 2 2 3 3
3 5 4 7 2 5 5 5 1 7 8 7 9 13 11 9 9 13 13 14 14 12 11 11 9 6 4 7 5 5 5 4 6 6 5 4 4 4 5 5 4 4 4 4 3 3 2 2 1
3 5 6 5 5 3 1 3 2 7 8 10 8 7 11 11 12 8 10 10 16 14 12 11 11 9 7 4 8 5 5 5 4 5 6 7 4 5 4 5 4 4 4 4 4 4 3 2 2
1 5 3 3 5 3 3 2 7 2 5 7 9 8 8 10 11 12 10 8 9 14 14 13 11 11 10 8 5 3 4 5 5 4 7 7 5 6 5 4 3 4 4 5 3 3 3 3 2
4 1 4 5 6 2 2 5 11 11 9 8 8 9 9 9 10 9 9 10 9 10 16 14 12 11 11 10 7 4 4 4 4 4 5 7 6 7 5 5 4 4 4 4 3 3 3 3 4
4 4 7 2 7 4 5 5 2 6 6 7 8 8 9 9 9 9 8 9 10 10 13 15 14 15 13 10 8 8 5 4 4 4 4 8 7 6 5 5 5 5 4 4 4 4 4 3 3
7 4 2 6 3 1 3 10 2 5 6 8 8 7 7 9 10 9 9 8 9 10 10 14 13 14 12 9 7 6 5 5 4 4 4 7 7 7 5 5 6 6 4 4 3 4 3 3 4
1 8 6 5 2 1 6 9 10 8 7 9 8 7 8 9 9 10 10 9 8 8 9 12 15 14 11 8 9 7 8 7 7 6 7 7 8 9 7 4 5 5 6 5 5 3 4 3 1
4 4 2 4 5 3 6 9 10 9 8 10 9 9 10 7 8 8 8 8 7 6 8 8 10 14 13 10 8 8 7 7 7 5 5 6 8 9 7 6 5 6 4 5 5 5 2 1 3
5 6 4 5 4 2 2 7 10 11 13 10 8 9 8 10 9 9 9 8 6 6 7 7 8 9 14 13 9 4 3 3 6 7 7 8 8 7 9 8 6 6 6 5 4 5 6 4 3
6 5 7 8 5 2 3 6 5 6 7 7 8 8 8 7 3 6 5 4 2 2 2 5 6 7 7 16 12 15 10 8 7 8 6 7 7 8 7 9 7 7 5 7 7 5 6 4 5
2 7 7 5 3 4 3 1 7 4 4 7 11 10 8 4 7 6 6 5 4 4 4 4 6 7 7 8 13 11 12 9 6 6 8 8 6 7 7 7 7 8 7 7 8 6 8 7 4
8 8 8 4 3 2 8 7 5 6 9 4 1 5 7 7 7 7 5 2 1 1 4 5 5 7 7 5 9 11 11 8 5 5 7 6 6 6 8 8 8 8 7 8 8 8 8 8 7
5 6 2 1 0 6 4 5 11 4 4 5 6 7 8 7 7 5 5 3 3 4 3 4 3 6 6 5 4 9 10 9 7 5 6 7 5 4 7 9 9 8 9 7 7 7 7 8 8
10 9 8 9 6 3 5 9 9 13 2 2 2 7 8 8 6 5 4 3 4 4 4 5 6 5 4 1 0 4 6 5 5 5 4 6 6 6 5 6 5 7 6 7 7 5 5 6 7
6 5 1 8 3 5 7 8 8 6 6 6 7 4 6 7 7 6 4 4 5 5 5 4 4 5 6 7 6 6 6 6 5 5 5 3 4 3 4 5 6 6 5 5 6 5 6 5 5
3 4 4 2 5 5 7 6 8 3 10 8 8 8 7 7 7 6 5 5 4 5 4 6 6 5 5 6 6 5 6 6 5 5 5 5 4 3 4 4 4 4 3 2 3 3 3 5 4
2 5 5 6 5 7 2 8 4 5 7 11 10 9 9 8 7 6 5 5 4 4 5 5 5 6 6 6 6 7 7 6 6 7 6 5 5 5 5 5 4 4 3 4 3 1 1 4 4
9 7 8 7 4 2 3 12 5 7 4 3 10 10 9 9 8 7 6 5 4 5 5 6 6 7 6 6 8 9 9 9 9 8 8 7 7 6 6 6 6 6 6 5 3 2 4 4 4
Wind_Direction
298 268 313 311 305 217 130 93 90 76 86 25 69 29 67 54 24 112 173 111 119 123 125 123 120 119 110 99 112 109 99 88 88 88 83 80 89 88 83 82 78 73 78 77 78 79 77 71 70
319 311 285 274 228 228 125 113 132 144 97 98 83 135 81 80 76 125 80 122 121 123 130 128 123 125 119 103 118 115 104 98 95 93 88 80 87 90 88 85 81 81 82 77 73 72 75 73 72
272 271 276 209 244 296 127 148 118 87 100 128 114 17 34 84 108 144 135 132 124 125 119 122 124 126 120 111 111 117 111 105 101 95 91 87 79 83 89 90 91 85 87 85 86 85 84 82 81
284 254 286 267 249 67 84 143 109 111 26 352 121 92 74 338 127 121 152 131 128 114 114 124 126 128 120 111 109 123 121 113 106 100 95 88 77 81 84 82 78 91 85 80 82 85 85 80 69
246 258 240 231 267 82 10 93 116 152 148 168 291 131 97 68 86 127 144 135 117 118 120 128 126 123 121 115 113 117 127 117 110 108 106 96 81 82 82 89 83 83 86 84 81 81 84 71 62
271 227 217 232 217 93 87 92 135 180 154 82 42 117 89 125 125 138 144 138 115 124 124 129 126 125 121 115 109 112 126 126 122 121 115 105 96 90 85 82 97 102 97 86 83 83 79 71 57
237 202 242 229 120 112 119 150 175 149 146 166 355 90 118 156 133 144 145 142 119 121 122 132 137 130 125 124 119 118 114 135 132 128 121 108 95 86 85 86 95 90 86 83 81 83 79 72 60
290 226 266 285 128 130 131 150 357 175 95 46 23 48 163 149 140 143 147 137 122 123 143 146 137 150 144 138 119 118 121 129 130 116 111 104 101 99 97 96 103 96 100 99 92 83 81 74 61
283 337 228 232 142 120 143 125 297 9 114 69 85 57 105 125 142 148 140 140 123 130 170 149 147 165 151 136 130 112 111 119 119 121 130 136 128 117 108 105 114 105 89 96 98 90 95 94 65
230 199 235 182 182 143 162 162 149 139 146 142 95 38 112 131 155 160 160 144 131 133 180 143 157 166 153 151 149 147 144 151 151 139 171 190 140 135 107 112 121 101 78 80 83 87 234 264 143
224 244 295 49 47 129 156 184 144 207 177 183 171 162 144 149 160 157 155 156 149 148 168 156 190 185 162 138 169 154 160 167 159 147 191 180 120 128 117 126 130 124 139 138 149 206 263 313 74
252 337 348 66 10 37 148 141 160 229 108 41 98 154 151 161 162 166 181 189 184 167 182 172 187 215 172 138 171 159 161 157 150 174 168 165 126 165 136 145 163 165 187 154 165 201 82 42 34
255 125 41 72 81 47 84 141 226 202 130 80 84 143 158 168 190 182 186 187 179 181 183 178 181 191 183 191 181 176 168 165 156 160 165 192 166 176 149 153 177 175 174 152 192 134 160 124 65
202 117 122 140 102 57 173 101 30 230 161 139 132 173 168 181 189 201 185 187 175 176 188 181 184 186 187 187 200 184 186 165 173 155 169 204 175 164 163 161 183 156 151 168 173 163 164 170 144
149 102 87 182 164 99 296 151 228 160 139 181 181 198 194 194 186 197 188 190 181 174 175 184 187 183 186 193 203 186 181 167 183 168 165 181 182 168 163 164 181 165 161 161 156 151 152 150 175
157 239 162 158 128 147 141 254 223 185 161 201 212 199 204 211 210 195 191 185 178 166 173 182 195 186 187 190 199 207 186 182 170 180 160 175 193 171 168 168 181 168 146 152 161 171 191 193 186
220 191 198 157 201 113 186 250 183 112 154 221 244 236 196 193 210 227 204 185 176 175 168 173 193 200 195 194 189 196 200 184 175 176 171 170 184 198 169 173 180 160 154 181 186 198 176 195 200
158 224 201 152 214 29 221 269 281 189 197 229 244 236 222 192 207 204 207 199 179 178 174 171 178 194 201 198 197 190 195 205 179 197 179 176 176 192 185 184 176 157 162 196 199 187 209 176 187
112 160 169 124 38 157 237 265 256 242 209 221 235 243 240 212 208 194 191 194 194 190 176 175 176 182 187 193 192 190 193 188 198 191 196 185 180 184 191 186 174 162 175 191 194 186 192 237 181
138 142 168 68 83 104 307 266 260 256 246 222 211 231 229 236 194 187 154 165 182 204 200 192 181 179 185 185 200 199 199 205 197 190 191 186 184 183 179 182 189 168 164 195 193 167 141 175 184
189 173 150 116 162 192 309 274 238 246 230 249 230 223 241 208 206 172 163 180 183 204 223 214 205 190 182 185 180 173 198 162 193 199 195 206 190 186 178 184 178 177 177 191 180 164 170 181 216
192 140 111 135 143 192 187 272 313 250 218 220 248 242 236 249 150 113 100 112 158 221 328 250 244 223 204 180 182 187 200 205 200 204 189 193 201 194 181 188 180 166 168 180 196 188 203 153 186
207 127 130 122 117 77 177 34 261 8 235 236 237 222 223 142 83 95 76 62 22 357 310 288 287 284 249 179 185 185 197 225 198 185 185 183 187 193 192 184 177 178 185 199 190 185 199 205 183
138 95 85 108 138 268 190 167 248 200 209 220 99 126 130 115 98 88 70 38 52 335 267 247 248 258 266 256 183 188 202 200 199 183 189 182 183 191 197 197 198 195 190 194 195 200 196 199 211
158 147 111 108 82 220 324 171 233 267 248 210 195 175 152 137 138 150 147 118 57 12 341 357 260 242 236 238 225 184 201 181 197 184 173 175 167 173 197 195 200 203 206 197 192 191 199 203 210
201 178 159 177 183 205 341 235 255 220 106 68 85 170 142 143 125 143 130 112 84 33 23 59 18 20 0 248 247 20 176 184 172 185 167 176 183 191 183 188 196 203 198 192 184 189 194 186 203
216 238 111 101 0 70 210 275 300 194 235 216 206 174 167 163 158 160 145 104 91 72 22 83 72 34 35 45 68 57 66 79 105 91 87 112 125 132 180 189 192 195 188 182 174 190 189 189 202
128 159 64 315 135 219 250 236 228 161 238 229 215 200 185 153 154 150 139 113 89 86 70 51 67 90 62 43 49 58 57 62 74 83 83 89 87 80 85 85 86 85 78 113 165 169 182 196 199
170 200 209 153 171 174 243 251 195 191 219 207 198 172 166 161 163 157 123 100 96 92 85 80 73 77 75 78 74 73 72 66 65 69 65 76 74 74 68 64 86 86 86 88 91 107 217 223 229
224 207 179 147 255 268 136 260 152 130 114 145 172 176 165 157 158 141 135 139 125 106 93 86 73 71 67 66 77 71 67 61 59 59 51 49 63 55 54 48 47 39 37 35 46 7 351 316 292